| time (UTC) | temp F | wind direction | speed MPH | gust MPH | rain 1hr in | rain 24hr in | rain mn in | humidity % | barometer mb |
| 20260905104111 | 76 | 212 | 10.0 | 17.0 | 0.00 | 0.00 | 0.00 | 96 | 1017.8 |
| 20260905103611 | 75 | 195 | 12.0 | 17.0 | 0.00 | 0.00 | 0.00 | 96 | 1017.8 |
| 20260905103109 | 75 | 208 | 13.0 | 17.0 | 0.00 | 0.00 | 0.00 | 96 | 1017.7 |
| 20260905102604 | 76 | 213 | 14.0 | 18.0 | 0.00 | 0.00 | 0.00 | 96 | 1017.7 |
| 20260905102425 | 75 | 202 | 15.0 | 18.0 | 0.00 | 0.00 | 0.00 | 96 | 1017.7 |
| 20260905101604 | 76 | 227 | 15.0 | 18.0 | 0.00 | 0.00 | 0.00 | 96 | 1017.7 |
| 20260905101103 | 76 | 222 | 14.0 | 20.0 | 0.00 | 0.00 | 0.00 | 96 | 1017.7 |
| 20260905100605 | 75 | 213 | 15.0 | 20.0 | 0.00 | 0.00 | 0.00 | 96 | 1017.7 |
| 20260905100201 | 75 | 243 | 15.0 | 20.0 | 0.00 | 0.00 | 0.00 | 96 | 1017.7 |
| 20260905095103 | 75 | 202 | 16.0 | 21.0 | 0.00 | 0.00 | 0.00 | 96 | 1017.6 |
| 20260905094604 | 75 | 223 | 16.0 | 21.0 | 0.00 | 0.00 | 0.00 | 96 | 1017.7 |
| 20260905094103 | 76 | 226 | 16.0 | 20.0 | 0.00 | 0.00 | 0.00 | 96 | 1017.7 |
| 20260905093559 | 75 | 244 | 16.0 | 20.0 | 0.00 | 0.00 | 0.00 | 96 | 1017.7 |
| 20260905093406 | 76 | 206 | 16.0 | 21.0 | 0.00 | 0.00 | 0.00 | 96 | 1017.7 |
| 20260905092855 | 76 | 203 | 15.0 | 21.0 | 0.00 | 0.00 | 0.00 | 96 | 1017.7 |
| 20260905092038 | 76 | 220 | 16.0 | 21.0 | 0.00 | 0.00 | 0.00 | 96 | 1017.7 |
| 20260905091631 | 76 | 218 | 17.0 | 22.0 | 0.00 | 0.00 | 0.00 | 95 | 1017.8 |
| 20260905090532 | 76 | 222 | 18.0 | 22.0 | 0.00 | 0.00 | 0.00 | 95 | 1017.7 |
| 20260905090032 | 76 | 225 | 17.0 | 22.0 | 0.00 | 0.00 | 0.00 | 96 | 1017.7 |
| 20260905085533 | 76 | 236 | 16.0 | 22.0 | 0.00 | 0.00 | 0.00 | 96 | 1017.7 |
| 20260905085028 | 76 | 218 | 16.0 | 21.0 | 0.00 | 0.00 | 0.00 | 96 | 1017.8 |
| 20260905084526 | 76 | 237 | 18.0 | 21.0 | 0.00 | 0.00 | 0.00 | 96 | 1017.7 |
| 20260905084025 | 76 | 219 | 17.0 | 22.0 | 0.00 | 0.00 | 0.00 | 96 | 1017.7 |
| 20260905083520 | 76 | 218 | 16.0 | 23.0 | 0.00 | 0.00 | 0.00 | 96 | 1017.6 |
| 20260905083021 | 75 | 218 | 18.0 | 24.0 | 0.00 | 0.00 | 0.00 | 96 | 1017.6 |
| 20260905082519 | 75 | 230 | 19.0 | 24.0 | 0.00 | 0.00 | 0.00 | 96 | 1017.5 |
| 20260905082017 | 75 | 222 | 18.0 | 24.0 | 0.00 | 0.00 | 0.00 | 96 | 1017.4 |
| 20260905081517 | 75 | 210 | 17.0 | 24.0 | 0.00 | 0.00 | 0.00 | 96 | 1017.3 |
| 20260905081015 | 75 | 226 | 18.0 | 24.0 | 0.00 | 0.00 | 0.00 | 96 | 1017.2 |
| 20260905080515 | 75 | 258 | 18.0 | 23.0 | 0.00 | 0.00 | 0.00 | 96 | 1017.1 |
| 20260905080014 | 75 | 226 | 17.0 | 22.0 | 0.00 | 0.00 | 0.00 | 96 | 1017.1 |
| 20260905075833 | 75 | 210 | 17.0 | 24.0 | 0.00 | 0.00 | 0.00 | 96 | 1017.1 |
| 20260905075011 | 75 | 202 | 18.0 | 24.0 | 0.00 | 0.00 | 0.00 | 96 | 1017.0 |
| 20260905074511 | 75 | 250 | 19.0 | 24.0 | 0.00 | 0.00 | 0.00 | 96 | 1016.9 |
| 20260905074012 | 75 | 222 | 16.0 | 23.0 | 0.00 | 0.00 | 0.00 | 96 | 1016.8 |
| 20260905073826 | 75 | 213 | 18.0 | 24.0 | 0.00 | 0.00 | 0.00 | 95 | 1016.8 |
| 20260905073006 | 75 | 229 | 16.0 | 24.0 | 0.00 | 0.00 | 0.00 | 95 | 1016.9 |
| 20260905072508 | 75 | 229 | 18.0 | 23.0 | 0.00 | 0.00 | 0.00 | 95 | 1016.8 |
| 20260905072005 | 75 | 223 | 17.0 | 22.0 | 0.00 | 0.00 | 0.00 | 96 | 1016.8 |
| 20260905071503 | 75 | 234 | 14.0 | 22.0 | 0.00 | 0.00 | 0.00 | 96 | 1016.7 |
| 20260905071004 | 75 | 218 | 16.0 | 21.0 | 0.00 | 0.00 | 0.00 | 96 | 1016.6 |
| 20260905070505 | 75 | 205 | 16.0 | 20.0 | 0.00 | 0.00 | 0.00 | 96 | 1016.6 |
| 20260905070003 | 75 | 202 | 17.0 | 22.0 | 0.00 | 0.00 | 0.00 | 95 | 1016.5 |
| 20260905065826 | 75 | 223 | 17.0 | 22.0 | 0.00 | 0.00 | 0.00 | 95 | 1016.3 |
| 20260905065003 | 75 | 226 | 18.0 | 22.0 | 0.00 | 0.00 | 0.00 | 95 | 1016.3 |
| 20260905064503 | 75 | 222 | 17.0 | 22.0 | 0.00 | 0.00 | 0.00 | 95 | 1016.2 |
| 20260905064003 | 75 | 222 | 19.0 | 22.0 | 0.00 | 0.00 | 0.00 | 95 | 1016.1 |
| 20260905063502 | 75 | 244 | 18.0 | 22.0 | 0.00 | 0.00 | 0.00 | 95 | 1016.2 |
| 20260905063118 | 75 | 240 | 15.0 | 23.0 | 0.00 | 0.00 | 0.00 | 95 | 1016.3 |
| 20260905061955 | 75 | 201 | 14.0 | 21.0 | 0.00 | 0.00 | 0.00 | 95 | 1016.3 |
| 20260905061451 | 75 | 210 | 15.0 | 22.0 | 0.00 | 0.00 | 0.00 | 95 | 1016.2 |
| 20260905060948 | 75 | 237 | 17.0 | 22.0 | 0.00 | 0.00 | 0.00 | 95 | 1016.3 |
| 20260905060447 | 75 | 212 | 17.0 | 21.0 | 0.00 | 0.00 | 0.00 | 95 | 1016.4 |
| 20260905060257 | 75 | 222 | 16.0 | 20.0 | 0.00 | 0.00 | 0.00 | 94 | 1016.4 |
| 20260905055444 | 75 | 218 | 16.0 | 21.0 | 0.00 | 0.00 | 0.00 | 94 | 1016.5 |
| 20260905054937 | 75 | 220 | 17.0 | 21.0 | 0.00 | 0.00 | 0.00 | 94 | 1016.5 |
| 20260905054434 | 75 | 206 | 17.0 | 21.0 | 0.00 | 0.00 | 0.00 | 94 | 1016.6 |
| 20260905053933 | 75 | 230 | 17.0 | 21.0 | 0.00 | 0.00 | 0.00 | 94 | 1016.6 |
| 20260905053432 | 75 | 218 | 16.0 | 21.0 | 0.00 | 0.00 | 0.00 | 94 | 1016.6 |
| 20260905052933 | 75 | 229 | 17.0 | 21.0 | 0.00 | 0.00 | 0.00 | 94 | 1016.6 |
| 20260905052431 | 75 | 227 | 16.0 | 20.0 | 0.00 | 0.00 | 0.00 | 94 | 1016.7 |
| 20260905051932 | 75 | 218 | 17.0 | 20.0 | 0.00 | 0.00 | 0.00 | 94 | 1016.7 |
| 20260905051431 | 75 | 222 | 15.0 | 20.0 | 0.00 | 0.00 | 0.00 | 94 | 1016.7 |
| 20260905050931 | 75 | 216 | 16.0 | 20.0 | 0.00 | 0.00 | 0.00 | 94 | 1016.7 |
| 20260905050433 | 75 | 263 | 14.0 | 19.0 | 0.00 | 0.00 | 0.00 | 94 | 1016.8 |
| 20260905045932 | 75 | 220 | 15.0 | 19.0 | 0.00 | 0.00 | 0.00 | 94 | 1016.7 |
| 20260905045434 | 75 | 225 | 13.0 | 19.0 | 0.00 | 0.00 | 0.00 | 94 | 1016.8 |
| 20260905044935 | 75 | 227 | 14.0 | 19.0 | 0.00 | 0.00 | 0.00 | 94 | 1016.7 |
| 20260905044754 | 75 | 223 | 12.0 | 17.0 | 0.00 | 0.00 | 0.00 | 94 | 1016.8 |
| 20260905043927 | 75 | 234 | 11.0 | 17.0 | 0.00 | 0.00 | 0.00 | 94 | 1016.8 |
| 20260905043426 | 75 | 242 | 10.0 | 16.0 | 0.00 | 0.00 | 0.00 | 94 | 1016.9 |
| 20260905042921 | 75 | 239 | 11.0 | 18.0 | 0.00 | 0.00 | 0.00 | 95 | 1016.9 |
| 20260905042419 | 75 | 250 | 11.0 | 18.0 | 0.00 | 0.00 | 0.00 | 95 | 1016.9 |
| 20260905041921 | 75 | 237 | 12.0 | 17.0 | 0.00 | 0.00 | 0.00 | 95 | 1016.9 |
| 20260905041420 | 75 | 234 | 12.0 | 17.0 | 0.00 | 0.00 | 0.00 | 94 | 1017.0 |
| 20260905040917 | 75 | 219 | 11.0 | 17.0 | 0.00 | 0.00 | 0.00 | 94 | 1017.0 |
| 20260905040415 | 75 | 246 | 12.0 | 17.0 | 0.00 | 0.00 | 0.00 | 94 | 1017.1 |
| 20260905035914 | 75 | 254 | 12.0 | 19.0 | 0.00 | 0.00 | 0.00 | 94 | 1017.1 |
| 20260905035734 | 75 | 239 | 13.0 | 19.0 | 0.00 | 0.00 | 0.00 | 94 | 1017.1 |
| 20260905034911 | 75 | 242 | 14.0 | 19.0 | 0.00 | 0.00 | 0.00 | 94 | 1017.0 |
| 20260905034407 | 75 | 242 | 13.0 | 18.0 | 0.00 | 0.00 | 0.00 | 95 | 1017.1 |
| 20260905033906 | 75 | 230 | 11.0 | 19.0 | 0.00 | 0.00 | 0.00 | 95 | 1017.0 |
| 20260905033407 | 75 | 247 | 12.0 | 19.0 | 0.00 | 0.00 | 0.00 | 95 | 1017.1 |
| 20260905032906 | 76 | 225 | 14.0 | 19.0 | 0.00 | 0.00 | 0.00 | 95 | 1017.1 |
| 20260905032719 | 76 | 209 | 14.0 | 20.0 | 0.00 | 0.00 | 0.00 | 95 | 1017.0 |
| 20260905031904 | 76 | 222 | 15.0 | 22.0 | 0.00 | 0.00 | 0.00 | 95 | 1017.0 |
| 20260905031403 | 76 | 181 | 17.0 | 23.0 | 0.00 | 0.00 | 0.00 | 95 | 1017.0 |
| 20260905030905 | 76 | 240 | 17.0 | 24.0 | 0.00 | 0.00 | 0.00 | 95 | 1017.1 |
| 20260905030404 | 76 | 216 | 17.0 | 24.0 | 0.00 | 0.00 | 0.00 | 95 | 1017.0 |
| 20260905025903 | 76 | 215 | 17.0 | 22.0 | 0.00 | 0.00 | 0.00 | 95 | 1017.0 |
| 20260905025402 | 75 | 225 | 17.0 | 22.0 | 0.00 | 0.00 | 0.00 | 96 | 1017.1 |
| 20260905024903 | 76 | 215 | 15.0 | 21.0 | 0.00 | 0.00 | 0.00 | 96 | 1017.1 |
| 20260905024406 | 76 | 185 | 16.0 | 21.0 | 0.00 | 0.00 | 0.00 | 96 | 1017.1 |
| 20260905023904 | 76 | 220 | 17.0 | 22.0 | 0.00 | 0.00 | 0.00 | 96 | 1017.2 |
| 20260905023403 | 76 | 256 | 17.0 | 22.0 | 0.00 | 0.00 | 0.00 | 96 | 1017.3 |
| 20260905022905 | 76 | 230 | 18.0 | 22.0 | 0.00 | 0.00 | 0.00 | 96 | 1017.4 |
| 20260905022401 | 76 | 209 | 17.0 | 21.0 | 0.00 | 0.00 | 0.00 | 96 | 1017.4 |
| 20260905021859 | 75 | 189 | 14.0 | 21.0 | 0.00 | 0.00 | 0.00 | 96 | 1017.4 |
| 20260905021358 | 75 | 205 | 13.0 | 21.0 | 0.00 | 0.00 | 0.00 | 96 | 1017.5 |
| 20260905020852 | 75 | 209 | 12.0 | 19.0 | 0.00 | 0.00 | 0.00 | 96 | 1017.6 |
| 20260905020351 | 75 | 196 | 12.0 | 19.0 | 0.00 | 0.00 | 0.00 | 96 | 1017.7 |
| 20260905015852 | 75 | 227 | 13.0 | 17.0 | 0.00 | 0.00 | 0.00 | 96 | 1017.8 |
| 20260905015345 | 75 | 203 | 12.0 | 20.0 | 0.00 | 0.00 | 0.00 | 96 | 1017.8 |
| 20260905014836 | 75 | 189 | 12.0 | 20.0 | 0.00 | 0.00 | 0.00 | 96 | 1017.8 |
| 20260905014650 | 75 | 223 | 11.0 | 19.0 | 0.00 | 0.00 | 0.00 | 96 | 1018.0 |
| 20260905013834 | 75 | 226 | 13.0 | 19.0 | 0.00 | 0.00 | 0.00 | 96 | 1017.9 |
| 20260905013334 | 75 | 230 | 13.0 | 19.0 | 0.00 | 0.00 | 0.00 | 96 | 1018.0 |
| 20260905012834 | 75 | 234 | 13.0 | 19.0 | 0.00 | 0.00 | 0.00 | 96 | 1017.9 |
| 20260905012629 | 75 | 242 | 10.0 | 16.0 | 0.00 | 0.00 | 0.00 | 96 | 1017.9 |
| 20260905011833 | 75 | 184 | 11.0 | 16.0 | 0.00 | 0.00 | 0.00 | 96 | 1017.8 |
| 20260905011333 | 75 | 188 | 11.0 | 16.0 | 0.00 | 0.00 | 0.00 | 96 | 1017.9 |
| 20260905010835 | 75 | 249 | 11.0 | 16.0 | 0.00 | 0.00 | 0.00 | 96 | 1017.9 |
| 20260905010331 | 75 | 250 | 10.0 | 17.0 | 0.00 | 0.00 | 0.00 | 96 | 1018.0 |
| 20260905005831 | 76 | 206 | 10.0 | 19.0 | 0.00 | 0.00 | 0.00 | 96 | 1018.0 |
| 20260905005328 | 76 | 234 | 12.0 | 19.0 | 0.00 | 0.00 | 0.00 | 96 | 1018.0 |
| 20260905004830 | 76 | 226 | 11.0 | 17.0 | 0.00 | 0.00 | 0.00 | 96 | 1018.1 |
| 20260905004328 | 76 | 185 | 11.0 | 17.0 | 0.00 | 0.00 | 0.00 | 96 | 1018.1 |
| 20260905003827 | 76 | 185 | 9.0 | 17.0 | 0.00 | 0.00 | 0.00 | 96 | 1018.1 |
| 20260905003323 | 76 | 188 | 10.0 | 17.0 | 0.00 | 0.00 | 0.00 | 96 | 1018.0 |
| 20260905002826 | 76 | 233 | 11.0 | 17.0 | 0.00 | 0.00 | 0.00 | 96 | 1018.1 |
| 20260905002324 | 76 | 249 | 11.0 | 17.0 | 0.00 | 0.00 | 0.00 | 96 | 1018.0 |
| 20260905001822 | 76 | 191 | 11.0 | 18.0 | 0.00 | 0.00 | 0.00 | 96 | 1018.1 |
| 20260905001640 | 76 | 210 | 11.0 | 18.0 | 0.00 | 0.00 | 0.00 | 96 | 1018.2 |
| 20260905000819 | 76 | 203 | 12.0 | 18.0 | 0.00 | 0.00 | 0.00 | 96 | 1018.2 |
| 20260905000318 | 76 | 226 | 11.0 | 17.0 | 0.00 | 0.00 | 0.00 | 96 | 1018.3 |
| 20260904235814 | 76 | 223 | 12.0 | 18.0 | 0.00 | 0.00 | 0.00 | 96 | 1018.3 |
| 20260904235310 | 76 | 267 | 10.0 | 18.0 | 0.00 | 0.00 | 0.00 | 96 | 1018.3 |
| 20260904234810 | 76 | 199 | 12.0 | 18.0 | 0.00 | 0.00 | 0.00 | 96 | 1018.3 |
| 20260904234310 | 76 | 218 | 11.0 | 18.0 | 0.00 | 0.00 | 0.00 | 96 | 1018.4 |
| 20260904233810 | 76 | 213 | 12.0 | 17.0 | 0.00 | 0.00 | 0.00 | 96 | 1018.5 |
| 20260904233308 | 76 | 219 | 12.0 | 17.0 | 0.00 | 0.00 | 0.00 | 96 | 1018.5 |
| 20260904232805 | 76 | 242 | 12.0 | 17.0 | 0.00 | 0.00 | 0.00 | 96 | 1018.5 |
| 20260904232307 | 76 | 199 | 10.0 | 17.0 | 0.00 | 0.00 | 0.00 | 96 | 1018.5 |
| 20260904232119 | 76 | 219 | 12.0 | 17.0 | 0.00 | 0.00 | 0.00 | 96 | 1018.6 |
| 20260904231302 | 76 | 206 | 13.0 | 17.0 | 0.00 | 0.00 | 0.00 | 96 | 1018.7 |
| 20260904230801 | 76 | 199 | 12.0 | 17.0 | 0.00 | 0.00 | 0.00 | 96 | 1018.7 |
| 20260904230257 | 76 | 179 | 12.0 | 17.0 | 0.00 | 0.00 | 0.00 | 96 | 1018.7 |
| 20260904225755 | 76 | 223 | 10.0 | 15.0 | 0.00 | 0.00 | 0.00 | 96 | 1018.7 |
| 20260904225252 | 76 | 213 | 11.0 | 15.0 | 0.00 | 0.00 | 0.00 | 96 | 1018.7 |
| 20260904224748 | 76 | 205 | 10.0 | 15.0 | 0.00 | 0.00 | 0.00 | 96 | 1018.7 |
| 20260904224249 | 76 | 202 | 11.0 | 16.0 | 0.00 | 0.00 | 0.00 | 96 | 1018.8 |
| 20260904224101 | 76 | 202 | 10.0 | 16.0 | 0.00 | 0.00 | 0.00 | 96 | 1018.7 |
| 20260904223243 | 76 | 194 | 9.0 | 15.0 | 0.00 | 0.00 | 0.00 | 96 | 1018.7 |
| 20260904222738 | 76 | 246 | 10.0 | 15.0 | 0.00 | 0.00 | 0.00 | 96 | 1018.7 |
| 20260904222555 | 76 | 212 | 10.0 | 16.0 | 0.00 | 0.00 | 0.00 | 96 | 1018.6 |
| 20260904221735 | 76 | 220 | 10.0 | 16.0 | 0.00 | 0.00 | 0.00 | 95 | 1018.7 |
| 20260904221234 | 76 | 205 | 9.0 | 16.0 | 0.00 | 0.00 | 0.00 | 95 | 1018.6 |
| 20260904220735 | 76 | 223 | 11.0 | 16.0 | 0.00 | 0.00 | 0.00 | 95 | 1018.6 |
| 20260904220231 | 76 | 206 | 9.0 | 15.0 | 0.00 | 0.00 | 0.00 | 95 | 1018.6 |
| 20260904215732 | 76 | 199 | 11.0 | 15.0 | 0.00 | 0.00 | 0.00 | 95 | 1018.6 |
| 20260904215545 | 76 | 192 | 9.0 | 15.0 | 0.00 | 0.00 | 0.00 | 95 | 1018.5 |
| 20260904214733 | 76 | 208 | 8.0 | 14.0 | 0.00 | 0.00 | 0.00 | 95 | 1018.4 |
| 20260904214232 | 76 | 229 | 8.0 | 15.0 | 0.00 | 0.00 | 0.00 | 95 | 1018.4 |
| 20260904213732 | 76 | 198 | 8.0 | 15.0 | 0.00 | 0.00 | 0.00 | 95 | 1018.4 |
| 20260904213232 | 76 | 194 | 9.0 | 15.0 | 0.00 | 0.00 | 0.00 | 95 | 1018.2 |
| 20260904212731 | 76 | 179 | 8.0 | 13.0 | 0.00 | 0.00 | 0.00 | 95 | 1018.2 |
| 20260904212231 | 76 | 201 | 9.0 | 14.0 | 0.00 | 0.00 | 0.00 | 95 | 1018.2 |
| 20260904211730 | 76 | 191 | 8.0 | 14.0 | 0.00 | 0.00 | 0.00 | 95 | 1018.2 |
| 20260904211225 | 76 | 174 | 8.0 | 13.0 | 0.00 | 0.00 | 0.00 | 95 | 1018.1 |
| 20260904210803 | 76 | 201 | 8.0 | 13.0 | 0.00 | 0.00 | 0.00 | 95 | 1018.1 |
| 20260904205712 | 76 | 225 | 9.0 | 13.0 | 0.00 | 0.00 | 0.00 | 95 | 1018.1 |
| 20260904205211 | 76 | 213 | 9.0 | 13.0 | 0.00 | 0.00 | 0.00 | 95 | 1018.0 |
| 20260904204711 | 76 | 218 | 8.0 | 15.0 | 0.00 | 0.00 | 0.00 | 95 | 1017.9 |
| 20260904204313 | 76 | 172 | 9.0 | 15.0 | 0.00 | 0.00 | 0.00 | 95 | 1017.9 |
| 20260904203208 | 76 | 192 | 9.0 | 14.0 | 0.00 | 0.00 | 0.00 | 95 | 1017.9 |
| 20260904203020 | 76 | 206 | 9.0 | 14.0 | 0.00 | 0.00 | 0.00 | 95 | 1017.9 |
| 20260904202203 | 76 | 234 | 9.0 | 14.0 | 0.00 | 0.00 | 0.00 | 95 | 1017.9 |
| 20260904201706 | 76 | 181 | 10.0 | 14.0 | 0.00 | 0.00 | 0.00 | 94 | 1017.9 |
| 20260904201204 | 76 | 202 | 11.0 | 15.0 | 0.00 | 0.00 | 0.00 | 94 | 1018.0 |
| 20260904200704 | 76 | 237 | 10.0 | 15.0 | 0.00 | 0.00 | 0.00 | 94 | 1018.0 |
| 20260904200205 | 76 | 199 | 10.0 | 18.0 | 0.00 | 0.00 | 0.00 | 94 | 1017.9 |
| 20260904195712 | 76 | 219 | 13.0 | 18.0 | 0.00 | 0.00 | 0.00 | 94 | 1018.0 |
| 20260904195204 | 76 | 220 | 11.0 | 15.0 | 0.00 | 0.00 | 0.00 | 95 | 1018.0 |
| 20260904195007 | 76 | 215 | 10.0 | 13.0 | 0.00 | 0.00 | 0.00 | 95 | 1018.0 |
| 20260904194501 | 76 | 240 | 9.0 | 13.0 | 0.00 | 0.00 | 0.00 | 95 | 1018.1 |
| 20260904193704 | 76 | 216 | 7.0 | 12.0 | 0.00 | 0.00 | 0.00 | 95 | 1018.0 |
| 20260904193205 | 76 | 192 | 9.0 | 12.0 | 0.00 | 0.00 | 0.00 | 95 | 1018.0 |
| 20260904192702 | 76 | 209 | 9.0 | 12.0 | 0.00 | 0.00 | 0.00 | 95 | 1018.0 |
| 20260904192203 | 76 | 218 | 8.0 | 14.0 | 0.00 | 0.00 | 0.00 | 95 | 1018.0 |
| 20260904191703 | 76 | 201 | 8.0 | 14.0 | 0.00 | 0.00 | 0.00 | 95 | 1017.9 |
| 20260904191204 | 76 | 188 | 8.0 | 12.0 | 0.00 | 0.00 | 0.00 | 95 | 1017.9 |
| 20260904191027 | 76 | 209 | 8.0 | 12.0 | 0.00 | 0.00 | 0.00 | 94 | 1017.9 |
| 20260904190204 | 76 | 188 | 8.0 | 12.0 | 0.00 | 0.00 | 0.00 | 94 | 1017.9 |
| 20260904185703 | 76 | 160 | 7.0 | 13.0 | 0.00 | 0.00 | 0.00 | 94 | 1018.0 |
| 20260904185159 | 76 | 236 | 7.0 | 13.0 | 0.00 | 0.00 | 0.00 | 94 | 1018.1 |
| 20260904184658 | 76 | 187 | 8.0 | 13.0 | 0.00 | 0.00 | 0.00 | 94 | 1018.1 |
| 20260904184514 | 76 | 185 | 8.0 | 13.0 | 0.00 | 0.00 | 0.00 | 94 | 1018.0 |
| 20260904183656 | 76 | 195 | 9.0 | 13.0 | 0.00 | 0.00 | 0.00 | 94 | 1018.1 |
| 20260904183155 | 76 | 184 | 9.0 | 14.0 | 0.00 | 0.00 | 0.00 | 94 | 1018.1 |
| 20260904182654 | 76 | 179 | 9.0 | 14.0 | 0.00 | 0.00 | 0.00 | 94 | 1018.0 |
| 20260904182154 | 76 | 171 | 10.0 | 13.0 | 0.00 | 0.00 | 0.00 | 94 | 1018.1 |
| 20260904181707 | 76 | 202 | 10.0 | 13.0 | 0.00 | 0.00 | 0.00 | 94 | 1018.1 |
| 20260904181153 | 76 | 187 | 10.0 | 15.0 | 0.00 | 0.00 | 0.00 | 94 | 1018.1 |
| 20260904180655 | 76 | 230 | 10.0 | 15.0 | 0.00 | 0.00 | 0.00 | 94 | 1018.2 |
| 20260904180154 | 76 | 181 | 12.0 | 14.0 | 0.00 | 0.00 | 0.00 | 94 | 1018.1 |
| 20260904175653 | 76 | 191 | 11.0 | 13.0 | 0.00 | 0.00 | 0.00 | 94 | 1018.2 |
| 20260904175153 | 76 | 178 | 9.0 | 15.0 | 0.00 | 0.00 | 0.00 | 94 | 1018.3 |
| 20260904174654 | 76 | 209 | 11.0 | 15.0 | 0.00 | 0.00 | 0.00 | 94 | 1018.3 |
| 20260904174154 | 76 | 177 | 13.0 | 16.0 | 0.00 | 0.00 | 0.00 | 94 | 1018.3 |
| 20260904173653 | 76 | 182 | 13.0 | 16.0 | 0.00 | 0.00 | 0.00 | 93 | 1018.2 |
| 20260904173151 | 76 | 189 | 13.0 | 16.0 | 0.00 | 0.00 | 0.00 | 93 | 1018.3 |
| 20260904172651 | 76 | 212 | 12.0 | 16.0 | 0.00 | 0.00 | 0.00 | 93 | 1018.3 |
| 20260904172524 | 76 | 199 | 12.0 | 16.0 | 0.00 | 0.00 | 0.00 | 93 | 1018.2 |
| 20260904171649 | 76 | 191 | 12.0 | 15.0 | 0.00 | 0.00 | 0.00 | 93 | 1018.3 |
| 20260904171150 | 76 | 187 | 10.0 | 16.0 | 0.00 | 0.00 | 0.00 | 93 | 1018.2 |
| 20260904170650 | 76 | 188 | 13.0 | 17.0 | 0.00 | 0.00 | 0.00 | 92 | 1018.3 |
| 20260904170150 | 76 | 185 | 13.0 | 17.0 | 0.00 | 0.00 | 0.00 | 92 | 1018.3 |
| 20260904165650 | 76 | 184 | 12.0 | 15.0 | 0.00 | 0.00 | 0.00 | 92 | 1018.4 |
| 20260904165148 | 77 | 206 | 11.0 | 16.0 | 0.00 | 0.00 | 0.00 | 92 | 1018.3 |
| 20260904164645 | 76 | 210 | 11.0 | 16.0 | 0.00 | 0.00 | 0.00 | 92 | 1018.5 |
| 20260904164146 | 77 | 185 | 12.0 | 15.0 | 0.00 | 0.00 | 0.00 | 91 | 1018.5 |
| 20260904163643 | 77 | 188 | 10.0 | 15.0 | 0.00 | 0.00 | 0.00 | 91 | 1018.5 |
| 20260904163143 | 77 | 227 | 9.0 | 15.0 | 0.00 | 0.00 | 0.00 | 91 | 1018.6 |
| 20260904162958 | 77 | 233 | 10.0 | 14.0 | 0.00 | 0.00 | 0.00 | 90 | 1018.6 |
| 20260904162142 | 77 | 196 | 10.0 | 14.0 | 0.00 | 0.00 | 0.00 | 90 | 1018.5 |
| 20260904161640 | 77 | 201 | 10.0 | 14.0 | 0.00 | 0.00 | 0.00 | 90 | 1018.5 |
| 20260904161138 | 77 | 188 | 9.0 | 14.0 | 0.00 | 0.00 | 0.00 | 90 | 1018.6 |
| 20260904160637 | 77 | 165 | 10.0 | 15.0 | 0.00 | 0.00 | 0.00 | 90 | 1018.6 |
| 20260904160515 | 77 | 192 | 11.0 | 15.0 | 0.00 | 0.00 | 0.00 | 90 | 1018.5 |
| 20260904155734 | 77 | 188 | 10.0 | 15.0 | 0.00 | 0.00 | 0.00 | 90 | 1018.6 |
| 20260904154635 | 77 | 201 | 10.0 | 15.0 | 0.00 | 0.00 | 0.00 | 91 | 1018.7 |
| 20260904154135 | 77 | 199 | 11.0 | 15.0 | 0.00 | 0.00 | 0.00 | 91 | 1018.6 |
| 20260904153634 | 77 | 191 | 11.0 | 14.0 | 0.00 | 0.00 | 0.00 | 91 | 1018.8 |
| 20260904153131 | 77 | 175 | 10.0 | 14.0 | 0.00 | 0.00 | 0.00 | 91 | 1018.7 |
| 20260904153009 | 77 | 202 | 10.0 | 13.0 | 0.00 | 0.00 | 0.00 | 91 | 1018.9 |
| 20260904152131 | 77 | 195 | 9.0 | 15.0 | 0.00 | 0.00 | 0.00 | 91 | 1018.8 |
| 20260904151949 | 77 | 175 | 11.0 | 15.0 | 0.00 | 0.00 | 0.00 | 91 | 1018.8 |
| 20260904151125 | 77 | 182 | 10.0 | 14.0 | 0.00 | 0.00 | 0.00 | 92 | 1018.8 |
| 20260904150625 | 76 | 187 | 10.0 | 14.0 | 0.00 | 0.00 | 0.00 | 92 | 1018.7 |
| 20260904150125 | 76 | 196 | 11.0 | 14.0 | 0.00 | 0.00 | 0.00 | 91 | 1018.9 |
| 20260904145623 | 77 | 202 | 10.0 | 14.0 | 0.00 | 0.00 | 0.00 | 91 | 1018.8 |
| 20260904145123 | 77 | 189 | 10.0 | 13.0 | 0.00 | 0.00 | 0.00 | 91 | 1018.9 |
| 20260904144620 | 77 | 184 | 8.0 | 12.0 | 0.00 | 0.00 | 0.00 | 91 | 1019.0 |
| 20260904144119 | 76 | 188 | 10.0 | 13.0 | 0.00 | 0.00 | 0.00 | 92 | 1018.9 |
| 20260904143618 | 77 | 194 | 10.0 | 13.0 | 0.00 | 0.00 | 0.00 | 91 | 1018.9 |
| 20260904143115 | 77 | 209 | 10.0 | 13.0 | 0.00 | 0.00 | 0.00 | 91 | 1018.9 |
| 20260904142614 | 77 | 182 | 10.0 | 13.0 | 0.00 | 0.00 | 0.00 | 91 | 1018.9 |
| 20260904142112 | 77 | 202 | 9.0 | 13.0 | 0.00 | 0.00 | 0.00 | 91 | 1018.9 |
| 20260904141610 | 77 | 191 | 9.0 | 13.0 | 0.00 | 0.00 | 0.00 | 91 | 1019.0 |
| 20260904141110 | 77 | 187 | 9.0 | 13.0 | 0.00 | 0.00 | 0.00 | 92 | 1019.0 |
| 20260904140608 | 76 | 222 | 8.0 | 12.0 | 0.00 | 0.00 | 0.00 | 92 | 1019.1 |
| 20260904140108 | 76 | 175 | 9.0 | 14.0 | 0.00 | 0.00 | 0.00 | 92 | 1019.0 |
| 20260904135604 | 76 | 181 | 11.0 | 14.0 | 0.00 | 0.00 | 0.00 | 92 | 1019.0 |
| 20260904135104 | 76 | 194 | 10.0 | 13.0 | 0.00 | 0.00 | 0.00 | 92 | 1019.0 |
| 20260904134602 | 77 | 192 | 10.0 | 13.0 | 0.00 | 0.00 | 0.00 | 92 | 1019.0 |
| 20260904134115 | 77 | 188 | 8.0 | 14.0 | 0.00 | 0.00 | 0.00 | 92 | 1019.1 |
| 20260904133709 | 76 | 206 | 10.0 | 16.0 | 0.00 | 0.00 | 0.00 | 92 | 1019.2 |
| 20260904132602 | 77 | 170 | 10.0 | 15.0 | 0.00 | 0.00 | 0.00 | 92 | 1019.3 |
| 20260904132104 | 76 | 191 | 10.0 | 16.0 | 0.00 | 0.00 | 0.00 | 92 | 1019.3 |
| 20260904131559 | 76 | 164 | 12.0 | 16.0 | 0.00 | 0.00 | 0.00 | 92 | 1019.4 |
| 20260904131059 | 76 | 161 | 11.0 | 16.0 | 0.00 | 0.00 | 0.00 | 92 | 1019.4 |
| 20260904130557 | 76 | 153 | 11.0 | 16.0 | 0.00 | 0.00 | 0.00 | 92 | 1019.4 |
| 20260904130054 | 76 | 168 | 11.0 | 13.0 | 0.00 | 0.00 | 0.00 | 92 | 1019.5 |
| 20260904125551 | 76 | 164 | 10.0 | 13.0 | 0.00 | 0.00 | 0.00 | 92 | 1019.5 |
| 20260904125052 | 76 | 144 | 10.0 | 14.0 | 0.00 | 0.00 | 0.00 | 92 | 1019.4 |
| 20260904124549 | 76 | 179 | 8.0 | 14.0 | 0.00 | 0.00 | 0.00 | 93 | 1019.5 |
| 20260904124051 | 76 | 178 | 10.0 | 14.0 | 0.00 | 0.00 | 0.00 | 92 | 1019.6 |
| 20260904123547 | 76 | 172 | 10.0 | 14.0 | 0.00 | 0.00 | 0.00 | 93 | 1019.6 |
| 20260904123401 | 76 | 177 | 10.0 | 14.0 | 0.00 | 0.00 | 0.00 | 93 | 1019.6 |
| 20260904122546 | 76 | 182 | 11.0 | 14.0 | 0.00 | 0.00 | 0.00 | 92 | 1019.8 |
| 20260904122045 | 76 | 178 | 11.0 | 14.0 | 0.00 | 0.00 | 0.00 | 92 | 1019.8 |
| 20260904121859 | 76 | 185 | 11.0 | 14.0 | 0.00 | 0.00 | 0.00 | 92 | 1019.8 |
| 20260904121046 | 76 | 179 | 11.0 | 14.0 | 0.00 | 0.00 | 0.00 | 92 | 1019.9 |
| 20260904120545 | 76 | 178 | 11.0 | 14.0 | 0.00 | 0.00 | 0.00 | 91 | 1019.8 |
| 20260904120045 | 76 | 187 | 10.0 | 13.0 | 0.00 | 0.00 | 0.00 | 92 | 1019.9 |
| 20260904115544 | 76 | 226 | 10.0 | 14.0 | 0.00 | 0.00 | 0.00 | 92 | 1019.9 |
| 20260904115043 | 76 | 182 | 11.0 | 14.0 | 0.00 | 0.00 | 0.00 | 92 | 1019.9 |
| 20260904114918 | 76 | 182 | 12.0 | 14.0 | 0.00 | 0.00 | 0.00 | 92 | 1019.8 |
| 20260904114358 | 76 | 220 | 11.0 | 14.0 | 0.00 | 0.00 | 0.00 | 92 | 1019.8 |
| 20260904113542 | 76 | 181 | 10.0 | 13.0 | 0.00 | 0.00 | 0.00 | 92 | 1019.9 |
| 20260904113043 | 76 | 185 | 10.0 | 14.0 | 0.00 | 0.00 | 0.00 | 92 | 1019.8 |
| 20260904112544 | 76 | 182 | 11.0 | 14.0 | 0.00 | 0.00 | 0.00 | 92 | 1019.8 |
| 20260904112041 | 76 | 206 | 10.0 | 13.0 | 0.00 | 0.00 | 0.00 | 92 | 1019.8 |
| 20260904111542 | 76 | 198 | 10.0 | 13.0 | 0.00 | 0.00 | 0.00 | 92 | 1019.8 |
| 20260904111044 | 76 | 177 | 9.0 | 12.0 | 0.00 | 0.00 | 0.00 | 92 | 1019.8 |
| 20260904110541 | 76 | 189 | 8.0 | 13.0 | 0.00 | 0.00 | 0.00 | 91 | 1019.7 |
| 20260904110045 | 76 | 194 | 9.0 | 13.0 | 0.00 | 0.00 | 0.00 | 91 | 1019.7 |
| 20260904105534 | 76 | 187 | 8.0 | 13.0 | 0.00 | 0.00 | 0.00 | 91 | 1019.7 |
| 20260904105035 | 76 | 201 | 9.0 | 14.0 | 0.00 | 0.00 | 0.00 | 91 | 1019.7 |
| 20260904104531 | 76 | 191 | 10.0 | 14.0 | 0.00 | 0.00 | 0.00 | 92 | 1019.6 |